Wind_Speed
3 7 12 9 3 7 8 11 24 17 17 17 15 16 16 12 12 10 9 11 14 20 25 30 32 32 31 32 35 39 44 49 44 46 49 49 50 50 55 54 55 54 55 56
11 2 10 15 15 15 9 13 19 23 22 22 22 19 18 21 21 20 22 23 23 25 28 31 34 38 33 34 38 39 47 50 48 46 52 50 49 52 53 55 54 54 55 56
11 6 7 7 12 11 8 14 21 27 27 23 24 30 34 31 24 22 24 27 27 29 27 29 30 34 41 41 42 42 51 50 49 48 51 50 50 54 54 57 55 56 54 56
20 10 2 8 15 12 12 16 20 23 28 24 18 24 37 34 35 37 38 35 32 31 30 27 28 31 35 37 44 47 50 51 51 50 54 51 45 48 51 53 57 59 57 56
20 20 22 14 16 12 13 15 18 20 26 24 22 24 38 35 35 39 40 39 41 41 41 42 39 40 41 41 44 48 52 53 53 54 53 54 50 47 48 49 55 58 61 59
16 16 19 21 19 20 17 11 15 19 20 24 30 35 35 33 34 38 45 46 41 41 44 45 41 46 46 48 44 51 53 54 51 55 54 55 53 56 48 51 55 54 58 60
24 20 17 18 20 21 22 18 20 22 25 26 34 33 33 37 36 43 45 44 43 41 40 44 44 45 49 50 48 50 51 52 53 54 55 54 52 53 52 57 52 52 55 58
25 22 25 21 20 16 24 24 25 26 31 31 31 36 32 36 42 41 45 45 47 48 43 44 46 45 48 50 55 55 55 52 52 53 54 52 52 55 49 56 57 57 56 57
28 21 25 27 28 28 25 30 27 28 30 28 31 35 37 40 43 46 49 52 50 47 51 47 42 47 47 50 53 55 53 55 54 55 54 53 54 60 56 55 61 57 56 60
26 23 25 26 27 30 32 33 34 35 36 34 27 39 37 39 44 51 46 49 47 45 47 49 47 48 50 54 54 53 53 56 58 59 54 55 56 54 55 57 59 58 56 58
25 26 26 28 26 26 27 30 28 31 35 37 38 42 39 41 44 39 42 52 39 52 53 51 49 51 52 55 54 52 56 57 59 62 57 57 58 55 58 59 60 58 54 59
23 26 26 24 28 27 28 33 31 29 33 32 36 37 35 35 38 38 45 43 48 58 55 56 50 52 54 56 53 54 55 55 59 59 58 55 61 60 57 58 58 57 54 64
25 27 27 25 26 19 22 30 31 32 33 24 38 39 35 35 32 41 41 34 44 50 62 66 58 53 56 57 59 56 58 61 60 60 58 62 64 60 58 55 58 57 58 65
28 28 28 28 28 26 27 30 32 32 34 36 38 40 37 36 32 27 32 48 66 65 63 65 65 57 55 57 56 57 60 61 61 60 61 61 56 57 58 55 60 62 64 62
29 29 28 31 31 31 32 34 36 38 38 38 38 42 37 32 29 23 31 33 33 53 56 59 61 61 56 58 57 59 61 62 61 61 61 62 65 64 64 61 65 62 63 61
31 32 32 33 32 34 36 35 37 38 41 38 39 42 44 37 31 35 29 12 22 48 67 58 56 58 59 60 61 61 62 62 60 61 65 63 65 66 68 65 66 65 62 61
31 32 32 33 32 33 35 35 36 39 39 38 39 41 42 44 39 39 35 41 56 62 62 61 61 61 63 61 62 62 64 67 67 66 68 70 72 70 68 68 68 68 64 57
30 30 31 32 34 33 35 34 35 37 41 37 42 44 46 45 42 44 45 46 51 55 58 59 60 60 62 63 63 65 65 66 69 71 71 75 75 73 71 70 64 55 51 46
28 30 30 29 30 31 36 30 36 47 40 39 44 49 48 52 48 50 49 51 53 55 57 58 57 58 61 62 63 64 68 71 71 73 76 80 73 65 60 57 49 46 42 38
34 31 34 34 32 35 38 34 41 35 41 49 54 47 58 60 58 57 56 57 57 58 57 57 58 58 61 65 67 71 72 72 74 79 79 70 60 51 51 46 39 39 36 38
36 30 42 38 38 34 37 33 32 30 25 43 48 62 61 60 61 58 58 58 57 57 56 58 56 57 61 66 69 72 75 73 69 64 57 54 47 45 41 33 34 35 38 40
44 46 42 38 36 48 49 38 36 33 39 57 66 64 66 62 60 60 61 60 54 54 56 57 59 64 63 71 74 61 52 62 62 55 45 40 36 31 30 30 32 35 36 33
27 13 32 37 46 51 53 56 59 60 63 62 60 61 64 65 62 62 59 54 53 52 54 56 58 57 64 69 50 52 45 57 52 42 36 35 33 32 31 31 31 33 36 38
48 58 56 61 62 54 55 58 67 71 66 54 55 60 63 65 64 63 57 49 49 50 52 56 49 56 71 51 39 51 44 53 46 37 36 35 33 32 32 33 35 38 45 48
57 62 63 63 60 68 66 56 34 51 37 55 70 65 64 63 63 55 52 50 49 49 49 46 54 59 62 40 28 29 47 42 34 39 36 36 36 37 39 43 45 48 51 53
62 60 62 58 54 61 59 50 63 73 75 70 70 66 64 63 53 49 49 49 50 50 48 46 59 56 48 37 33 34 36 38 39 40 40 41 42 44 46 48 51 55 57 58
Wind_Direction
359 3 71 59 106 71 47 360 26 355 352 3 2 0 357 360 7 350 332 331 339 350 356 355 345 346 350 350 348 350 353 357 356 0 1 1 4 3 5 6 7 5 3 4
257 156 34 12 357 346 47 33 15 357 350 356 353 350 352 346 338 336 332 328 331 338 343 352 359 355 343 340 341 342 350 352 351 355 358 357 359 357 2 0 2 4 2 1
272 232 37 323 358 349 358 6 20 2 350 344 346 4 357 351 337 332 334 328 333 334 336 346 354 352 348 351 350 346 350 352 348 351 353 354 358 354 358 356 358 358 358 0
262 257 156 290 319 337 345 16 18 356 355 341 339 339 342 338 342 343 338 334 324 328 333 342 344 346 343 339 339 342 342 343 349 349 353 352 352 354 354 353 355 355 354 357
266 269 269 282 305 318 339 342 13 340 349 344 301 302 325 326 342 341 338 336 337 337 328 324 325 332 336 333 332 340 343 341 343 343 344 349 347 346 348 350 352 351 351 351
253 271 272 269 288 296 295 313 316 301 329 340 312 311 315 325 333 332 334 332 329 331 333 338 334 331 329 328 327 338 337 337 336 338 338 340 346 347 344 347 347 348 350 351
266 269 277 280 279 292 294 280 279 301 313 315 313 321 324 324 328 326 329 326 324 327 326 323 326 328 330 328 325 329 333 336 337 335 332 331 336 345 349 348 347 347 349 350
268 261 271 261 277 288 297 299 298 292 301 301 305 315 314 313 315 320 328 323 321 323 327 325 325 324 327 325 325 328 330 330 331 336 334 327 332 340 338 343 341 345 346 346
265 266 270 272 274 272 263 282 282 300 297 296 294 302 309 314 319 320 321 319 316 319 321 327 324 325 319 318 322 326 327 330 331 335 338 330 329 333 331 338 340 337 341 347
263 261 272 273 275 278 277 280 292 297 298 303 299 308 317 316 310 315 322 320 322 321 324 323 323 323 322 320 322 327 325 330 329 332 333 334 332 332 329 331 337 335 336 340
262 265 277 275 278 277 287 287 291 300 302 301 297 303 305 306 313 324 314 316 310 323 321 324 324 320 317 317 321 322 323 325 327 328 327 327 330 328 325 325 332 334 337 340
267 272 278 283 280 278 283 282 284 298 301 302 307 307 310 318 320 316 304 310 303 312 319 320 320 314 311 313 315 313 316 320 321 324 323 323 323 322 324 327 328 329 332 336
269 273 282 285 290 296 287 287 296 297 302 284 302 304 310 312 311 318 319 311 307 307 313 319 318 316 310 310 311 313 317 317 319 320 319 320 322 320 324 325 322 326 329 333
270 275 280 283 285 287 287 290 294 294 296 298 301 303 311 316 313 305 291 299 295 300 306 311 310 312 311 311 312 313 313 314 318 319 318 320 321 323 322 322 322 325 326 329
273 278 281 284 286 288 289 293 297 298 298 297 299 299 304 305 309 319 317 332 338 312 304 309 310 313 315 312 314 315 314 316 317 318 320 321 319 321 321 319 319 322 322 326
275 279 280 282 287 290 292 295 297 300 298 301 302 305 304 306 311 297 310 215 244 300 307 310 308 309 311 312 313 314 315 315 316 313 314 315 314 314 314 316 316 320 321 323
275 282 285 288 290 293 296 302 303 300 303 305 304 304 304 307 310 305 296 284 289 295 301 304 306 308 310 313 315 315 313 313 314 312 313 312 312 312 312 311 313 314 315 317
284 288 290 294 295 298 299 306 304 302 302 314 307 306 303 308 307 303 301 297 296 299 300 303 307 311 313 314 314 313 313 314 314 314 311 313 312 309 308 309 314 316 315 315
287 292 292 291 297 302 297 306 310 306 302 305 313 312 312 312 307 305 302 302 301 301 302 305 308 312 313 312 312 313 312 312 312 310 310 310 312 311 312 313 318 317 316 309
287 300 291 289 292 290 296 313 316 316 314 304 307 310 314 312 309 308 308 306 303 303 305 307 312 315 314 314 316 316 315 315 313 312 312 314 313 315 311 308 316 318 311 309
281 277 280 291 291 282 304 301 304 301 286 309 302 312 309 308 309 309 310 307 304 305 308 311 314 314 317 318 317 316 318 320 319 322 324 324 325 323 321 321 319 318 321 322
283 274 276 279 271 294 298 296 307 283 268 298 301 304 305 307 306 309 310 307 307 311 313 315 318 321 322 323 324 328 331 335 330 326 328 331 336 341 342 333 328 326 325 324
261 297 286 276 290 290 292 290 292 290 286 291 299 302 304 305 306 308 310 305 307 310 313 316 321 323 324 327 336 329 325 335 331 336 344 346 346 344 341 333 329 326 324 324
255 273 275 284 290 290 287 288 294 288 291 294 300 301 303 304 306 308 307 305 307 310 314 318 322 325 328 328 349 333 327 329 332 341 344 344 340 336 334 330 327 325 325 324
271 274 278 279 280 284 289 296 222 281 282 294 300 302 303 303 306 304 306 307 309 311 314 315 324 325 328 328 328 306 305 322 334 332 332 330 328 329 330 329 328 326 323 322
278 282 284 283 287 280 285 291 290 282 288 292 298 299 299 302 303 304 305 309 314 312 316 323 317 324 325 329 333 331 331 333 333 330 327 328 330 332 332 330 329 328 326 326
Height
10961 10958 10957 10956 10955 10953 10952 10953 10947 10943 10938 10935 10932 10930 10927 10924 10920 10918 10915 10910 10905 10899 10895 10891 10885 10879 10873 10866 10860 10853 10845 10838 10829 10819 10810 10801 10793 10784 10776 10766 10758 10749 10740 10731
10959 10960 10957 10957 10957 10955 10955 10949 10945 10944 10939 10935 10932 10930 10928 10925 10922 10920 10916 10910 10905 10899 10893 10887 10882 10876 10870 10864 10857 10850 10843 10834 10825 10816 10808 10799 10790 10782 10774 10765 10755 10747 10738 10728
10955 10956 10956 10958 10955 10950 10950 10948 10944 10943 10940 10936 10933 10930 10928 10925 10923 10919 10914 10909 10903 10897 10891 10884 10878 10873 10867 10861 10854 10846 10839 10831 10822 10814 10805 10796 10786 10777 10768 10761 10753 10744 10735 10724
10953 10954 10953 10952 10951 10952 10949 10945 10941 10942 10940 10935 10930 10928 10927 10924 10919 10915 10912 10908 10902 10896 10890 10883 10877 10871 10864 10858 10851 10844 10836 10826 10818 10810 10802 10793 10785 10777 10768 10760 10750 10741 10731 10721
10950 10951 10951 10952 10950 10949 10949 10947 10945 10940 10940 10935 10928 10926 10926 10922 10917 10911 10908 10904 10898 10892 10885 10880 10874 10867 10861 10854 10846 10839 10831 10823 10815 10806 10797 10789 10781 10772 10764 10755 10746 10736 10726 10716
10947 10948 10948 10949 10947 10947 10947 10948 10945 10940 10940 10939 10932 10928 10925 10920 10915 10912 10907 10898 10893 10888 10881 10876 10871 10864 10858 10850 10842 10834 10826 10818 10809 10800 10792 10785 10777 10768 10760 10751 10742 10732 10723 10712
10942 10944 10944 10943 10943 10943 10943 10945 10944 10940 10937 10935 10928 10925 10919 10915 10911 10906 10902 10896 10888 10882 10879 10871 10866 10861 10852 10845 10839 10830 10822 10814 10806 10796 10788 10779 10771 10762 10754 10745 10736 10727 10718 10709
10940 10942 10941 10941 10939 10939 10937 10938 10937 10935 10933 10928 10925 10923 10919 10913 10907 10902 10895 10890 10887 10878 10874 10867 10859 10854 10846 10839 10832 10826 10818 10811 10802 10792 10783 10774 10766 10758 10749 10740 10732 10723 10714 10704
10934 10940 10935 10936 10936 10935 10934 10932 10931 10931 10928 10924 10922 10918 10913 10908 10903 10898 10892 10884 10877 10873 10866 10862 10857 10849 10843 10834 10827 10820 10813 10805 10797 10787 10778 10769 10761 10753 10744 10736 10727 10717 10708 10699
10929 10932 10931 10932 10930 10929 10927 10927 10926 10923 10920 10918 10914 10910 10908 10904 10899 10893 10888 10878 10871 10866 10860 10852 10849 10842 10834 10826 10820 10814 10805 10797 10788 10780 10772 10763 10755 10746 10738 10728 10720 10711 10702 10693
10924 10926 10927 10926 10926 10922 10924 10921 10920 10919 10914 10912 10910 10904 10903 10900 10894 10887 10879 10874 10866 10861 10856 10852 10841 10833 10830 10821 10814 10806 10798 10791 10781 10773 10766 10758 10749 10741 10732 10723 10714 10705 10696 10687
10920 10920 10920 10919 10919 10920 10918 10913 10916 10916 10912 10906 10905 10903 10897 10894 10890 10882 10875 10868 10861 10857 10851 10846 10842 10830 10822 10814 10810 10800 10793 10786 10778 10769 10760 10751 10742 10732 10724 10716 10707 10698 10689 10680
10916 10916 10916 10916 10914 10916 10913 10909 10910 10907 10906 10901 10896 10894 10894 10889 10883 10872 10860 10861 10859 10849 10842 10835 10832 10825 10812 10806 10798 10793 10783 10775 10767 10760 10751 10740 10731 10723 10714 10707 10698 10690 10682 10673
10910 10910 10910 10909 10908 10910 10909 10905 10904 10904 10900 10898 10891 10883 10885 10887 10885 10877 10863 10859 10851 10845 10837 10828 10820 10819 10810 10798 10791 10782 10775 10768 10759 10748 10740 10732 10724 10716 10707 10699 10690 10682 10673 10664
10904 10905 10905 10904 10903 10903 10902 10900 10897 10896 10894 10890 10886 10874 10878 10880 10878 10873 10870 10864 10833 10826 10828 10822 10814 10804 10803 10790 10784 10774 10765 10756 10748 10739 10730 10721 10712 10705 10697 10689 10681 10672 10664 10655
10898 10899 10899 10898 10899 10896 10894 10893 10891 10889 10884 10883 10878 10871 10863 10869 10871 10869 10863 10854 10837 10831 10818 10819 10811 10800 10790 10783 10773 10764 10754 10746 10737 10729 10720 10712 10703 10694 10686 10677 10669 10661 10653 10645
10893 10893 10892 10891 10892 10891 10889 10886 10883 10878 10875 10874 10870 10865 10861 10859 10860 10856 10855 10848 10835 10824 10818 10811 10804 10794 10780 10774 10763 10756 10746 10735 10727 10718 10708 10699 10690 10681 10673 10664 10656 10649 10641 10634
10888 10888 10888 10886 10885 10887 10883 10880 10876 10871 10867 10865 10860 10857 10853 10854 10852 10846 10840 10836 10828 10821 10812 10803 10792 10782 10769 10760 10754 10745 10737 10725 10715 10704 10694 10685 10676 10666 10658 10650 10643 10635 10628 10623
10881 10882 10882 10880 10880 10879 10872 10875 10870 10864 10862 10856 10853 10847 10843 10840 10842 10833 10829 10823 10816 10808 10799 10789 10781 10771 10761 10751 10743 10733 10722 10712 10702 10690 10680 10669 10660 10651 10643 10637 10632 10625 10619 10613
10874 10876 10873 10872 10874 10866 10863 10867 10861 10852 10857 10850 10847 10841 10837 10829 10826 10820 10814 10806 10798 10791 10784 10776 10770 10762 10749 10738 10730 10719 10708 10697 10685 10674 10662 10651 10643 10635 10628 10623 10622 10616 10610 10605
10869 10868 10867 10866 10860 10856 10864 10863 10862 10864 10839 10834 10836 10833 10827 10821 10814 10808 10800 10793 10785 10778 10771 10765 10759 10750 10740 10728 10717 10706 10695 10683 10670 10659 10650 10640 10631 10625 10618 10614 10613 10609 10603 10598
10857 10851 10851 10854 10851 10854 10854 10850 10853 10851 10841 10835 10831 10824 10816 10813 10805 10795 10788 10779 10772 10766 10760 10753 10745 10736 10726 10715 10704 10692 10680 10672 10661 10652 10644 10635 10627 10622 10616 10612 10607 10602 10598 10592
10839 10841 10842 10840 10847 10853 10849 10841 10839 10835 10827 10825 10818 10810 10806 10799 10791 10786 10780 10770 10763 10759 10750 10746 10739 10728 10719 10704 10695 10683 10674 10666 10658 10649 10640 10633 10626 10620 10616 10610 10604 10598 10592 10587
10836 10831 10840 10837 10832 10839 10839 10836 10829 10812 10809 10811 10806 10800 10796 10790 10780 10771 10765 10763 10756 10751 10744 10736 10731 10722 10712 10700 10691 10674 10666 10660 10654 10647 10639 10633 10627 10621 10615 10607 10600 10593 10586 10579
10831 10830 10830 10832 10828 10815 10819 10829 10835 10800 10796 10799 10796 10789 10785 10779 10770 10761 10754 10750 10747 10742 10737 10730 10722 10715 10704 10696 10690 10682 10671 10662 10653 10646 10639 10632 10625 10617 10610 10602 10595 10588 10579 10572
10813 10811 10808 10814 10815 10803 10806 10821 10814 10801 10792 10788 10781 10779 10775 10769 10759 10753 10746 10740 10736 10730 10724 10719 10713 10706 10698 10690 10682 10675 10667 10659 10650 10643 10636 10628 10620 10611 10604 10596 10587 10576 10568 10558